Weather History for Ishigakijima, Japan

Change the Weather History Date:

Saturday, December 8, 2012

  Actual Average Record
Temperature  
Mean Temperature 70 °F -  
Max Temperature 71 °F 69 °F 77 °F (2006)
Min Temperature 65 °F 62 °F 57 °F (2010)
Cooling Degree Days 4    
Growing Degree Days 20 (Base 50)    
Moisture  
Dew Point 60 °F    
Average Humidity 70    
Maximum Humidity 87    
Minimum Humidity 56    
Precipitation  
Precipitation 0.04 in - - ()
Sea Level Pressure  
Sea Level Pressure 30.02 in    
Wind  
Wind Speed 12 mph ()    
Max Wind Speed 21 mph    
Max Gust Speed -    
Visibility 8.2 miles    
Events Rain    
Averages and records for this station are not official NWS values.
T = Trace of Precipitation, MM = Missing Value Source: Averaged Metar Reports

Daily Weather History Graph

Daily Weather History Graph

Search for Another Location

Airport:

Trip Planner

Search our weather history database for the weather conditions in past years. The results will help you decide how hot, cold, wet, or windy it might be!

Date:

Astronomy

Dec. 08, 2012 Rise Set
Actual Time 7:14 AM JST 5:55 PM JST
Civil Twilight 6:50 AM JST 6:20 PM JST
Nautical Twilight 6:21 AM JST 6:48 PM JST
Astronomical Twilight 5:54 AM JST 7:16 PM JST
Moon 1:32 AM JST (12/8) 1:37 PM JST (12/8)
Length of Visible Light 11h 30m
Length of Day
10h 40m
Waning Crescent, 34% of the Moon is Illuminated
Dec 8
Waning Crescent
Dec 13
New
Dec 20
First Quarter
Dec 28
Full
Jan 5
Last Quarter

Hourly Weather History & Observations

Time (JST) Temp. Dew Point Humidity Pressure Visibility Wind Dir Wind Speed Gust Speed Precip Events Conditions
12:00 AM 69 °F 62 °F 72% 30.08 in - NE 11.5 mph - -  
3:00 AM 69 °F 60 °F 64% 30.04 in 12 mi ENE 11.5 mph - -   Overcast
6:00 AM 69 °F 59 °F 63% 30.04 in 12 mi ENE 10.4 mph - -   Overcast
6:00 AM 68.0 °F 59.0 °F 73% 30.01 in 6.2 mi ENE 9.2 mph - N/A   Mostly Cloudy
7:00 AM 68.0 °F 59.0 °F 73% 30.04 in 6.2 mi ENE 10.4 mph - N/A   Mostly Cloudy
8:00 AM 69.8 °F 60.8 °F 73% 30.04 in 6.2 mi ENE 13.8 mph - N/A Rain Light Rain
9:00 AM 70 °F 60 °F 62% 30.06 in 16 mi ENE 16.1 mph - - Rain Light Rain
9:00 AM 69.8 °F 59.0 °F 68% 30.04 in 6.2 mi ENE 12.7 mph - N/A Rain Light Rain
10:00 AM 69.8 °F 59.0 °F 68% 30.06 in 6.2 mi ENE 15.0 mph - N/A   Mostly Cloudy
11:00 AM 69.8 °F 60.8 °F 73% 30.06 in 6.2 mi ENE 15.0 mph - N/A   Mostly Cloudy
12:00 PM 71 °F 58 °F 56% 30.05 in 16 mi East 19.6 mph - - Rain Light Rain
12:00 PM 69.8 °F 59.0 °F 68% 30.04 in 6.2 mi East 18.4 mph - N/A   Mostly Cloudy
1:00 PM 69.8 °F 59.0 °F 68% 30.01 in 6.2 mi ENE 15.0 mph - N/A   Mostly Cloudy
2:00 PM 69.8 °F 59.0 °F 68% 29.98 in 6.2 mi ENE 15.0 mph - N/A   Mostly Cloudy
3:00 PM 69 °F 60 °F 65% 29.97 in 16 mi ENE 18.4 mph - - Rain Light Rain Showers
3:00 PM 68.0 °F 60.8 °F 78% 29.95 in 6.2 mi ENE 16.1 mph - N/A Rain Light Rain
4:00 PM 69.8 °F 59.0 °F 68% 29.95 in 6.2 mi ENE 15.0 mph - N/A   Mostly Cloudy
5:00 PM 69.8 °F 60.8 °F 73% 29.98 in 6.2 mi ENE 13.8 mph - N/A   Overcast
6:00 PM 70 °F 60 °F 62% 29.99 in 9 mi ENE 16.1 mph - - Rain Light Rain
6:00 PM 69.8 °F 60.8 °F 73% 29.98 in 6.2 mi ENE 15.0 mph - N/A   Overcast
7:00 PM 69.8 °F 60.8 °F 73% 29.98 in 6.2 mi ENE 15.0 mph - N/A   Overcast
8:00 PM 68.0 °F 62.6 °F 83% 30.01 in 6.2 mi ENE 15.0 mph - N/A Rain Light Rain
9:00 PM 65 °F 62 °F 87% 30.04 in 6 mi ENE 20.7 mph - - Rain Light Rain